Vertical_Velocity
-2 -2 1 -3 1 -5 1 1 1 0 0 -2 -1 -2 -4 -5 2 7 0 1 -1 -4 3 -7 -1 3 -1 -3 -5 -0 0 -1 2 -1 0 -2 -0 2 -0 1 -1 -3 -2 -3 6 2 -12 1 -3 1 -1 2 -2 1
-4 1 -0 -1 1 -2 -1 0 -0 0 -0 -2 -3 -4 -1 -2 -5 -5 7 0 1 -6 8 -3 -5 -3 3 4 0 -2 2 2 -0 -1 -2 -2 -2 -0 1 -3 4 -4 -5 -3 -6 -2 5 5 -2 3 -0 1 0 -1
1 1 -5 4 3 1 -5 2 3 -0 -0 0 -1 -3 -5 -5 -1 1 1 3 2 -1 4 -1 1 0 -1 5 -3 -4 1 1 1 1 -2 -2 -2 -1 -1 -1 2 3 7 1 3 3 -3 1 2 -0 1 2 -1 -0
-0 2 -2 5 5 1 -3 0 3 2 0 -1 1 -1 0 -3 -5 -4 -1 5 1 1 -5 8 2 -4 1 4 -2 -3 1 1 2 1 -1 -2 -2 0 -1 -1 1 3 6 6 -4 -3 1 2 -0 1 -0 2 -1 -0
1 1 3 5 3 1 -2 -1 -2 -2 0 1 1 1 -0 -4 -1 -4 -2 7 2 -1 -1 2 1 -2 -0 1 3 2 1 1 -1 -0 -2 -1 -3 -1 -0 -2 -6 8 -0 -5 -15 3 5 2 1 0 -1 2 1 -1
0 -2 1 3 6 4 2 1 -1 -0 -3 -2 1 0 2 -3 -0 -5 -7 -3 2 1 5 8 18 -2 -3 2 1 1 1 -1 2 0 -0 -4 -1 4 0 -6 4 6 9 9 -1 1 -6 0 1 0 -0 2 -0 -0
1 1 2 4 3 1 1 2 -1 -1 -2 -2 0 2 2 -2 -3 -8 -5 18 1 -0 2 15 9 2 1 -0 1 1 0 -1 0 2 -5 4 -2 9 -3 -5 0 -0 -4 -3 -2 -3 -1 0 -1 1 0 2 -1 1
-0 1 2 3 -1 -0 1 1 -1 -1 -1 0 2 -0 1 -1 -3 -5 -3 5 2 5 8 13 18 5 2 1 4 1 1 1 1 -1 0 1 0 -1 -3 2 5 5 4 5 4 0 -0 0 0 2 1 1 -0 2
1 1 2 1 -1 -0 1 2 2 -2 -2 0 -0 -3 -2 -3 -3 -7 0 2 -2 -3 8 17 5 -1 11 0 -1 3 0 -1 -0 -1 -1 3 1 -1 -0 -0 -2 -2 -2 -1 -0 -1 -0 -1 1 1 1 -1 -4 4
2 4 2 0 0 -1 1 1 -0 -2 -2 2 -1 -5 -7 -4 0 -2 -3 -0 -2 4 8 7 8 5 1 1 0 -2 -1 -2 -1 -1 3 1 -0 2 1 -2 -2 -1 2 2 0 1 0 1 1 -1 2 -2 -8 3
1 0 1 -2 -2 2 3 -0 -3 0 -2 5 -4 -4 1 2 -1 -1 -3 -0 2 1 3 4 6 -4 5 -0 -2 1 -1 -2 -4 1 2 1 3 -1 -1 -0 0 -3 -1 0 -3 -0 -1 -0 -0 1 3 2 3 -3
1 0 -2 1 0 -0 2 -2 0 -2 3 -0 1 -3 -1 -1 1 -2 -1 1 -0 0 1 3 -2 3 -2 2 -3 -2 -0 1 1 2 0 2 0 0 -0 -0 2 1 -5 -2 0 -3 -0 -2 -1 0 4 2 0 5
4 -0 -2 -2 -1 1 1 -4 -1 2 -3 3 1 -6 3 -2 1 -4 -4 0 -0 -1 -2 -3 -1 0 1 -1 -2 0 1 -0 0 1 -1 -1 -1 -2 0 2 -0 1 -1 -2 -4 1 3 2 1 7 5 -1 1 -1
3 -2 -3 -1 0 -1 -1 0 -5 5 -4 2 1 -5 2 -3 1 2 0 -2 0 1 1 4 3 0 -0 -1 -1 0 -1 -0 -0 -1 0 -0 1 0 -1 0 1 1 0 2 1 4 1 2 0 5 6 5 -0 0
1 0 0 -2 -2 -2 -1 3 -4 3 -2 -1 0 -1 -0 -2 -1 1 1 -1 -2 0 3 3 4 1 -1 -2 -0 0 -0 -1 -2 -0 -1 -1 -1 -0 2 3 2 2 -0 1 -8 3 -1 1 -0 1 9 5 5 0
9 -1 0 -1 -3 -1 2 0 1 -5 1 -2 -3 -1 2 -2 -3 1 1 0 0 2 -1 1 1 -2 1 1 2 -0 -1 -1 -1 -0 0 -0 1 1 1 0 0 1 1 0 -0 -2 -2 6 -6 -6 -1 3 4 -1
1 -1 2 -1 -1 -0 0 1 1 -1 -6 -1 -1 1 0 1 -4 -1 1 2 2 -1 7 1 1 -4 -2 0 -3 -1 -2 2 0 0 0 1 1 1 -0 -1 1 0 -0 1 1 0 -0 -2 -2 2 1 -1 -3 2
-2 2 -0 1 -0 0 1 1 3 -3 -4 -2 -0 2 1 3 0 -1 1 -1 1 -1 -1 2 -2 2 -2 -2 -7 -4 1 1 1 1 -0 1 0 -0 -1 1 1 1 2 0 -0 1 0 1 -0 4 4 -2 -2 1
5 6 1 0 -0 0 -0 -3 2 -3 -3 -3 -1 1 0 3 -1 -0 1 1 3 3 1 2 1 -6 -3 -1 -2 -0 -1 1 1 1 -1 -2 -0 -1 2 -0 -1 -1 -1 -0 1 0 1 1 -0 -1 -1 -1 2 -3
15 5 2 -0 -1 -0 -1 -2 -1 -2 -2 -4 -3 0 1 1 -1 -1 -0 -1 0 1 0 -8 -7 -0 1 1 1 -1 -1 -1 -2 0 0 -1 -2 -2 -3 -6 -2 -1 -2 -0 0 1 1 2 -0 -1 -0 2 1 2
3 -3 1 4 -2 -0 1 -0 0 -1 1 -1 -1 -1 -1 0 1 1 0 1 -0 -4 -1 2 3 2 -1 -2 -1 -0 -1 -0 -2 -2 -3 3 -1 -2 -1 -3 -5 -4 -4 -3 -2 -1 1 1 2 0 0 2 1 3
1 5 5 3 -1 2 1 -2 0 -3 -1 -1 2 -3 -2 -1 1 0 0 -3 -4 1 -1 2 1 -1 0 1 -0 -0 -1 -1 -1 -1 -3 -3 -1 -3 -1 -2 -1 -1 -1 -4 -5 -2 -1 -0 1 2 2 -0 2 2
16 11 7 4 2 2 -4 1 -1 -1 -0 -6 1 -1 -4 -1 2 2 -5 -7 -4 4 1 -0 -1 -1 -1 -0 -1 -1 -0 1 0 -1 -2 -4 -2 -3 -2 -2 -3 -2 0 1 -3 0 1 -2 -1 -0 1 3 0 1
14 15 8 3 -3 -2 -3 -3 -1 0 -3 -1 0 -2 -1 -1 -1 -2 -9 -4 7 2 1 -1 0 -1 0 1 -0 -2 -2 -2 -2 0 -2 -1 -0 2 -1 -1 -2 -1 -3 -2 1 -0 -1 2 1 2 -1 -0 -0 -0
24 -0 -1 -2 -4 -4 -2 -4 -2 -2 -3 1 2 2 0 1 -2 -6 -8 -2 2 -1 -1 0 1 -1 -2 -1 -2 -2 -3 -2 -2 -3 -1 -2 -3 -0 -0 -2 -1 -2 -3 -2 -2 0 0 0 4 3 2 1 1 -0
5 0 -4 0 -1 -1 -1 -2 0 0 1 4 -0 -2 -0 -0 -2 -6 -7 0 -0 -1 -0 -1 -2 -4 0 -3 -2 -1 -1 -0 -0 1 4 -4 -3 -3 -1 -4 -1 8 0 -6 -2 -1 -1 -1 -1 2 5 3 0 -2
-0 -9 -6 -3 -4 -3 -1 2 2 0 2 1 -1 1 1 -3 -3 -4 0 -1 -2 -1 1 -2 -2 -2 1 0 -3 -3 -1 -2 -3 -4 -3 -2 -1 -2 -5 -5 -4 2 -1 0 -3 -1 -1 -1 -0 -2 5 6 3 0
-12 -9 1 3 -2 1 -0 -0 0 -1 -0 -3 -1 -3 -4 -2 -2 1 2 -2 -3 -2 -3 -4 -3 -2 -3 -3 -3 -1 -1 -2 -3 -4 -4 -1 2 -2 -3 -9 -3 -1 -3 2 2 -1 -0 1 1 1 1 5 1 6
-6 -0 4 -5 -2 -4 -4 -3 -2 -5 -2 -0 -2 3 -1 0 2 -1 -5 -2 -3 -4 -3 -2 -2 -3 -2 -2 -1 -2 -1 -3 -5 -4 -3 -2 3 14 -11 -5 -2 -2 -1 0 -1 0 1 1 2 2 0 6 8 9
-1 1 -5 -4 -5 -2 -1 -0 -0 3 2 1 0 -4 -4 3 3 -2 -2 0 -1 -2 -2 -2 -2 -1 -1 -1 1 2 -2 -4 -3 -5 -7 -2 1 -0 -2 -3 -3 -1 -1 -0 1 1 2 -0 -1 -3 -2 2 2 1
2 -2 -2 -0 -2 -0 1 0 -1 -0 -0 -1 -2 -3 -1 -4 3 1 1 -1 -3 -2 -1 -1 -0 0 1 -1 -3 -4 5 5 2 -1 -8 -6 -1 0 -1 -2 0 1 1 -0 0 1 1 -1 0 3 4 7 5 4
1 -4 0 0 -0 1 -2 -2 -1 -3 -2 -3 -2 0 1 -0 -3 -3 4 -3 -2 -0 1 -0 -0 -2 -2 -2 -1 -3 -4 -3 -4 -4 -3 -3 -2 -1 -0 0 1 2 1 0 0 -1 1 5 4 4 2 4 9 8
-5 -2 -1 -0 2 -3 -3 0 -2 -6 -2 0 0 2 1 -2 -5 -3 -0 -1 -1 -1 -1 -0 -1 -2 -1 -2 -1 -0 -1 -2 -2 -4 -3 -1 -1 -1 0 -0 -0 1 0 0 1 2 3 2 2 2 1 3 6 6
Height
3026 3024 3023 3021 3022 3022 3023 3021 3019 3018 3016 3013 3011 3009 3007 3004 2999 2996 2994 2991 2992 2993 2998 2998 2999 3001 3003 3006 3008 3009 3010 3009 3010 3011 3012 3012 3013 3013 3014 3014 3014 3015 3017 3017 3018 3019 3013 3009 3008 3009 3006 3001 2997 2995
3018 3016 3015 3014 3016 3017 3017 3017 3014 3013 3011 3009 3005 3002 2999 2997 2996 2993 2988 2983 2982 2984 2991 2991 2994 2997 2999 3002 3005 3006 3008 3008 3009 3009 3010 3010 3011 3011 3011 3011 3011 3012 3012 3011 3012 3008 3008 3007 3006 3004 3001 2998 2995 2993
3010 3008 3008 3009 3011 3011 3011 3011 3008 3007 3004 3002 2999 2995 2991 2987 2984 2981 2980 2977 2974 2972 2978 2980 2987 2993 2995 2998 3002 3005 3006 3006 3007 3008 3008 3008 3009 3009 3008 3007 3008 3008 3008 3007 3007 3005 3004 3004 3003 3001 2999 2996 2994 2993
3002 3002 3003 3005 3007 3006 3005 3004 3001 3000 2998 2995 2992 2988 2984 2979 2974 2970 2969 2968 2968 2967 2967 2972 2977 2982 2989 2993 2997 3001 3002 3004 3005 3006 3006 3006 3006 3005 3004 3004 3003 3004 3003 3003 3002 3002 3003 3002 3001 2999 2996 2995 2993 2992
2997 2998 2999 3001 3001 3001 3000 2999 2998 2995 2992 2989 2984 2979 2974 2969 2963 2958 2957 2958 2959 2963 2961 2966 2968 2977 2983 2988 2993 2997 3000 3001 3003 3004 3004 3004 3003 3002 2999 2998 2994 2996 2997 2998 2996 2998 2998 2998 2998 2996 2994 2993 2992 2991
2992 2994 2995 2995 2996 2996 2995 2995 2994 2991 2988 2983 2977 2972 2965 2961 2954 2950 2948 2950 2953 2954 2957 2961 2965 2971 2978 2983 2989 2993 2996 2998 2999 3000 3000 2999 2999 3000 2996 2991 2990 2991 2991 2991 2992 2993 2993 2993 2994 2993 2992 2991 2990 2990
2988 2990 2990 2990 2990 2990 2990 2990 2988 2986 2983 2978 2971 2964 2959 2955 2951 2948 2949 2949 2949 2950 2955 2957 2963 2968 2975 2980 2985 2990 2993 2995 2996 2996 2995 2995 2995 2995 2991 2987 2984 2983 2984 2984 2985 2987 2988 2988 2989 2990 2989 2989 2988 2989
2985 2985 2986 2985 2984 2985 2985 2985 2984 2982 2978 2972 2965 2958 2954 2951 2949 2948 2948 2949 2949 2954 2955 2955 2961 2968 2973 2977 2982 2986 2989 2991 2992 2993 2991 2991 2991 2990 2987 2984 2982 2980 2979 2981 2982 2983 2984 2984 2985 2985 2986 2986 2987 2987
2980 2981 2982 2981 2980 2980 2980 2980 2980 2979 2974 2968 2961 2956 2953 2951 2948 2949 2951 2952 2954 2958 2955 2955 2960 2966 2972 2976 2980 2983 2986 2988 2989 2988 2988 2988 2987 2986 2985 2981 2979 2977 2976 2976 2977 2978 2978 2979 2980 2981 2982 2983 2984 2985
2976 2976 2976 2976 2976 2976 2976 2977 2978 2976 2973 2967 2965 2960 2958 2955 2954 2955 2958 2957 2958 2958 2958 2960 2962 2965 2971 2974 2979 2983 2984 2986 2986 2986 2984 2984 2983 2982 2981 2979 2976 2974 2973 2973 2973 2973 2973 2974 2975 2976 2977 2978 2979 2982
2973 2973 2972 2972 2972 2971 2973 2974 2975 2974 2972 2970 2967 2965 2963 2960 2960 2960 2960 2960 2961 2961 2961 2963 2965 2967 2971 2975 2977 2980 2981 2983 2983 2983 2981 2980 2979 2979 2978 2976 2973 2972 2970 2968 2969 2970 2970 2970 2969 2971 2973 2973 2973 2975
2969 2968 2968 2968 2968 2968 2969 2969 2970 2970 2969 2969 2967 2965 2963 2962 2960 2961 2960 2961 2961 2962 2963 2965 2967 2969 2972 2974 2977 2979 2979 2979 2978 2978 2978 2976 2977 2976 2974 2971 2968 2967 2966 2965 2965 2967 2967 2967 2966 2967 2969 2970 2971 2973
2965 2965 2965 2965 2964 2964 2965 2965 2966 2966 2965 2965 2965 2964 2962 2961 2959 2959 2959 2959 2959 2960 2963 2964 2968 2970 2973 2974 2975 2976 2976 2976 2976 2975 2973 2974 2974 2973 2972 2968 2965 2963 2962 2959 2959 2963 2964 2965 2964 2963 2964 2965 2968 2970
2960 2961 2961 2961 2960 2961 2961 2962 2963 2963 2963 2962 2961 2961 2960 2957 2956 2955 2956 2957 2959 2959 2960 2963 2966 2969 2971 2973 2974 2973 2974 2973 2972 2971 2971 2972 2972 2972 2970 2967 2964 2962 2960 2957 2958 2961 2961 2962 2961 2959 2959 2961 2964 2967
2956 2956 2956 2957 2957 2957 2958 2958 2959 2960 2960 2960 2959 2956 2954 2954 2953 2953 2954 2955 2957 2959 2961 2963 2965 2968 2969 2972 2971 2971 2970 2968 2968 2968 2969 2970 2971 2971 2970 2968 2966 2963 2962 2961 2960 2959 2960 2960 2960 2959 2957 2959 2960 2964
2951 2951 2953 2953 2954 2953 2953 2954 2955 2955 2956 2956 2954 2951 2951 2952 2952 2952 2952 2954 2956 2958 2961 2963 2965 2966 2967 2968 2967 2966 2966 2964 2965 2966 2967 2968 2968 2968 2968 2967 2966 2964 2963 2961 2959 2958 2959 2960 2960 2959 2959 2960 2961 2964
2946 2948 2950 2949 2949 2949 2949 2949 2950 2950 2951 2950 2949 2948 2949 2949 2951 2951 2952 2953 2954 2958 2959 2961 2962 2963 2964 2962 2962 2961 2960 2961 2962 2963 2964 2965 2965 2965 2965 2964 2964 2963 2962 2961 2960 2959 2958 2958 2960 2960 2959 2959 2960 2961
2942 2944 2944 2944 2944 2944 2944 2944 2945 2945 2945 2946 2946 2946 2945 2946 2948 2949 2950 2951 2952 2954 2957 2958 2958 2958 2958 2956 2956 2957 2958 2959 2960 2960 2960 2961 2960 2961 2961 2960 2960 2959 2958 2957 2957 2957 2956 2956 2956 2957 2957 2957 2957 2957
2938 2939 2939 2940 2940 2940 2940 2940 2940 2940 2940 2941 2942 2942 2942 2943 2944 2945 2947 2948 2950 2951 2952 2952 2953 2951 2952 2952 2953 2955 2955 2956 2956 2957 2957 2956 2956 2955 2955 2955 2955 2955 2954 2954 2952 2952 2951 2951 2951 2951 2953 2954 2954 2954
2932 2934 2934 2934 2935 2936 2936 2936 2935 2935 2935 2937 2937 2938 2938 2939 2940 2940 2942 2943 2945 2945 2946 2945 2946 2948 2948 2948 2948 2948 2949 2949 2950 2950 2950 2949 2948 2948 2948 2947 2947 2947 2948 2948 2948 2947 2946 2946 2945 2945 2946 2947 2948 2950
2926 2927 2929 2930 2930 2932 2933 2931 2931 2931 2931 2931 2932 2933 2934 2934 2935 2937 2938 2938 2938 2938 2939 2940 2941 2940 2940 2940 2940 2940 2940 2939 2939 2939 2938 2939 2938 2937 2937 2937 2936 2937 2938 2939 2940 2940 2940 2940 2940 2939 2940 2941 2942 2943
2921 2923 2924 2925 2926 2927 2926 2926 2927 2927 2928 2927 2928 2928 2929 2930 2930 2932 2933 2931 2930 2934 2934 2934 2933 2932 2932 2932 2932 2931 2931 2930 2929 2929 2927 2926 2925 2925 2924 2922 2922 2923 2924 2926 2927 2929 2931 2932 2932 2933 2934 2934 2935 2936
2915 2918 2919 2921 2923 2922 2920 2920 2921 2921 2922 2922 2923 2923 2924 2925 2925 2926 2924 2922 2924 2927 2927 2927 2926 2925 2925 2925 2923 2922 2921 2919 2918 2917 2917 2916 2915 2913 2913 2913 2911 2910 2911 2912 2911 2915 2918 2920 2922 2925 2925 2926 2927 2929
2910 2913 2914 2916 2915 2914 2914 2914 2915 2915 2915 2916 2917 2918 2918 2919 2919 2918 2916 2916 2920 2921 2920 2920 2919 2918 2917 2917 2916 2914 2912 2911 2909 2909 2907 2905 2905 2905 2903 2902 2901 2900 2898 2899 2899 2900 2903 2906 2909 2913 2916 2917 2919 2921
2906 2908 2909 2906 2906 2907 2908 2909 2909 2910 2910 2910 2911 2912 2912 2913 2913 2912 2911 2912 2913 2913 2913 2912 2912 2912 2912 2910 2908 2906 2903 2901 2900 2900 2900 2895 2893 2893 2893 2891 2890 2889 2887 2886 2887 2887 2890 2891 2895 2900 2903 2906 2910 2913
2895 2898 2899 2897 2897 2901 2902 2903 2903 2904 2904 2906 2907 2907 2907 2908 2908 2906 2903 2905 2905 2906 2906 2907 2907 2905 2904 2902 2900 2898 2896 2893 2891 2890 2892 2887 2884 2880 2878 2878 2878 2880 2874 2872 2874 2875 2877 2879 2882 2887 2892 2895 2898 2903
2884 2885 2887 2888 2892 2895 2896 2897 2898 2898 2899 2900 2900 2902 2904 2904 2901 2900 2900 2900 2901 2901 2901 2900 2898 2897 2896 2894 2891 2889 2886 2883 2881 2879 2878 2876 2873 2869 2865 2864 2865 2866 2863 2861 2862 2863 2866 2868 2871 2876 2879 2883 2887 2892
2874 2877 2881 2886 2887 2890 2891 2891 2892 2893 2894 2895 2896 2897 2898 2897 2896 2896 2896 2896 2895 2894 2893 2891 2890 2888 2887 2885 2882 2879 2877 2873 2870 2868 2866 2865 2861 2857 2853 2850 2850 2850 2849 2850 2850 2851 2853 2857 2860 2864 2867 2872 2877 2881
2866 2870 2876 2880 2884 2885 2885 2886 2887 2888 2890 2890 2891 2892 2891 2891 2893 2891 2890 2889 2888 2886 2885 2883 2882 2880 2878 2875 2872 2869 2866 2863 2860 2858 2854 2852 2849 2846 2837 2838 2837 2836 2835 2836 2837 2839 2842 2846 2849 2853 2856 2860 2867 2870
2859 2866 2871 2874 2877 2879 2881 2882 2883 2883 2884 2885 2885 2885 2885 2885 2885 2884 2883 2881 2880 2878 2877 2875 2873 2871 2869 2866 2864 2862 2857 2853 2849 2845 2841 2838 2834 2830 2826 2823 2823 2823 2823 2824 2826 2829 2832 2835 2838 2842 2847 2851 2856 2860
2855 2860 2865 2869 2870 2872 2875 2876 2877 2878 2878 2879 2879 2879 2878 2877 2877 2877 2875 2873 2871 2870 2869 2867 2865 2862 2860 2858 2856 2854 2851 2846 2840 2833 2827 2823 2819 2815 2812 2810 2811 2812 2814 2816 2819 2821 2823 2826 2830 2836 2839 2842 2847 2853
2850 2855 2859 2861 2864 2868 2869 2870 2871 2872 2872 2872 2872 2871 2870 2869 2868 2869 2869 2866 2865 2864 2862 2860 2857 2855 2853 2851 2848 2844 2839 2834 2828 2822 2815 2808 2804 2802 2800 2801 2802 2804 2807 2809 2811 2814 2817 2821 2825 2829 2832 2836 2842 2848
2847 2851 2853 2855 2858 2861 2864 2866 2865 2865 2865 2864 2864 2864 2863 2863 2862 2862 2861 2859 2859 2858 2856 2853 2852 2850 2847 2844 2841 2836 2831 2825 2818 2811 2803 2797 2794 2793 2793 2794 2796 2798 2801 2803 2806 2808 2812 2815 2818 2823 2827 2832 2838 2845